Location: Carri�res
(48.9069°N, 2.1792°E)
Time: 13:02:30
(UTC+00:00)

NOSS 3-1 (C) - Pass Details

Date: 17 January 2021
Orbit: 723 x 1485 km, 63.3° (Epoch: 22 February)

Event Time Altitude Azimuth Distance (km) Brightness Sun altitude
Rises 19:47:07 0° 317° (NW) 3,877 7.3 -32.6°
Reaches altitude 10° 19:49:35 10° 318° (NW) 3,020 6.6 -33.0°
Enters shadow 19:56:34 81° 343° (NNW) 1,296 4.0 -34.1°
